FW7383 Weather Reports


time (UTC)temp
F
wind
direction
speed
knots
gust
knots
rain 1hr
in
rain 24hr
in
rain mn
in
humidity
%
barometer
mb
20260510064032 53 328 0.0 4.3 0.00 0.00 0.00 83 1015.3
20260510063600 53 311 0.0 4.3 0.00 0.00 0.00 83 1015.4
20260510063022 52 303 0.0 5.2 0.00 0.00 0.00 83 1015.3
20260510062548 52 292 0.0 5.2 0.00 0.00 0.00 84 1015.4
20260510062017 52 304 0.9 4.3 0.00 0.00 0.00 84 1015.5
20260510061544 52 22 0.9 4.3 0.00 0.00 0.00 85 1015.5
20260510061005 52 286 0.0 3.5 0.00 0.00 0.00 85 1015.5
20260510060620 52 314 0.0 2.6 0.00 0.00 0.00 85 1015.4
20260510060005 52 14 0.0 5.2 0.00 0.00 0.00 84 1015.4
20260510055503 51 351 0.9 5.2 0.00 0.00 0.00 84 1015.4
20260510055024 51 6 0.9 4.3 0.00 0.00 0.00 84 1015.3
20260510054545 51 315 0.9 4.3 0.00 0.00 0.00 84 1015.3
20260510054051 51 295 0.9 3.5 0.00 0.00 0.00 84 1015.4
20260510053602 51 314 0.0 3.5 0.00 0.00 0.00 84 1015.2
20260510053053 51 310 0.0 3.5 0.00 0.00 0.00 84 1015.3
20260510052603 51 273 0.0 2.6 0.00 0.00 0.00 84 1015.3
20260510052004 51 4 0.0 2.6 0.00 0.00 0.00 84 1015.2
20260510051528 51 314 0.0 2.6 0.00 0.00 0.00 84 1015.3
20260510051048 51 336 0.0 2.6 0.00 0.00 0.00 84 1015.3
20260510050558 51 340 0.0 2.6 0.00 0.00 0.00 84 1015.3
20260510045556 51 326 0.0 3.5 0.00 0.00 0.00 84 1015.3
20260510045101 50 306 0.0 3.5 0.00 0.00 0.00 84 1015.3
20260510044619 50 279 0.0 0.0 0.00 0.00 0.00 84 1015.4
20260510044126 50 336 0.0 0.0 0.00 0.00 0.00 84 1015.3
20260510043531 50 319 0.0 0.0 0.00 0.00 0.00 84 1015.3
20260510043056 50 279 0.0 0.0 0.00 0.00 0.00 84 1015.3
20260510042504 50 357 0.0 0.0 0.00 0.00 0.00 83 1015.3
20260510042034 50 282 0.0 0.0 0.00 0.00 0.00 83 1015.2
20260510041505 50 330 0.0 0.0 0.00 0.00 0.00 83 1015.2
20260510041030 50 325 0.0 0.0 0.00 0.00 0.00 83 1015.2
20260510040558 50 280 0.0 0.0 0.00 0.00 0.00 83 1015.2
20260510040115 51 319 0.0 1.7 0.00 0.00 0.00 82 1015.1
20260510035525 51 6 0.0 0.9 0.00 0.00 0.00 82 1015.1
20260510035147 50 284 0.0 0.0 0.00 0.00 0.00 82 1015.1
20260510034510 50 346 0.0 0.0 0.00 0.00 0.00 82 1015.2
20260510034025 50 304 0.0 0.0 0.00 0.00 0.00 82 1015.2
20260510033546 50 297 0.0 0.9 0.00 0.00 0.00 82 1015.3
20260510033005 50 314 0.0 1.7 0.00 0.00 0.00 82 1015.3
20260510032529 50 272 0.0 1.7 0.00 0.00 0.00 81 1015.2
20260510032055 50 304 0.0 1.7 0.00 0.00 0.00 81 1015.2
20260510031508 50 319 0.0 1.7 0.00 0.00 0.00 81 1015.2
20260510031022 50 300 0.0 0.0 0.00 0.00 0.00 81 1015.3
20260510030001 50 291 0.0 0.0 0.00 0.00 0.00 81 1015.4
20260510025522 50 295 0.0 0.0 0.00 0.00 0.00 81 1015.4
20260510025036 50 307 0.0 0.0 0.00 0.00 0.00 80 1015.4
20260510024652 50 301 0.0 0.0 0.00 0.00 0.00 80 1015.5
20260510024025 50 310 0.0 0.9 0.00 0.00 0.00 79 1015.5
20260510023551 51 319 0.0 0.9 0.00 0.00 0.00 79 1015.5
20260510023003 51 315 0.0 0.0 0.00 0.00 0.00 79 1015.5
20260510022516 50 309 0.0 0.0 0.00 0.00 0.00 79 1015.5
20260510022033 51 309 0.0 0.0 0.00 0.00 0.00 78 1015.5
20260510021606 51 301 0.0 0.0 0.00 0.00 0.00 78 1015.5
20260510021039 51 288 0.0 1.7 0.00 0.00 0.00 77 1015.5
20260510020607 51 288 0.0 1.7 0.00 0.00 0.00 77 1015.5
20260510020010 51 298 0.0 0.0 0.00 0.00 0.00 77 1015.5
20260510015536 51 310 0.0 0.0 0.00 0.00 0.00 77 1015.6
20260510015104 51 320 0.0 0.0 0.00 0.00 0.00 77 1015.6
20260510014535 51 315 0.0 0.0 0.00 0.00 0.00 76 1015.6
20260510014048 51 296 0.0 1.7 0.00 0.00 0.00 76 1015.7
20260510012536 51 317 0.0 0.9 0.00 0.00 0.00 76 1015.7
20260510012050 51 296 0.0 0.0 0.00 0.00 0.00 75 1015.8
20260510011515 52 278 0.0 0.0 0.00 0.00 0.00 75 1015.9
20260510011034 52 293 0.0 0.0 0.00 0.00 0.00 75 1015.9
20260510010553 52 290 0.0 0.0 0.00 0.00 0.00 75 1015.9
20260510010048 52 291 0.0 0.0 0.00 0.00 0.00 74 1015.9
20260510005550 52 274 0.0 0.0 0.00 0.00 0.00 74 1015.9
20260510005003 52 275 0.0 0.9 0.00 0.00 0.00 74 1016.0
20260510004507 52 275 0.0 0.9 0.00 0.00 0.00 74 1015.9
20260510004008 52 323 0.0 1.7 0.00 0.00 0.00 74 1016.0
20260510003534 53 302 0.0 1.7 0.00 0.00 0.00 74 1016.0
20260510003043 53 305 0.0 0.0 0.00 0.00 0.00 73 1016.1
20260510002605 53 306 0.0 0.0 0.00 0.00 0.00 73 1016.1
20260510002010 53 315 0.0 0.0 0.00 0.00 0.00 73 1016.2
20260510001526 53 319 0.0 0.0 0.00 0.00 0.00 73 1016.2
20260510001104 53 323 0.0 0.0 0.00 0.00 0.00 72 1016.2
20260510000619 53 328 0.0 0.0 0.00 0.00 0.00 72 1016.2
20260510000056 53 287 0.0 0.0 0.00 0.00 0.00 72 1016.2
20260509235606 53 307 0.0 0.0 0.00 0.00 0.00 72 1016.3
20260509235010 54 298 0.0 0.0 0.00 0.00 0.00 71 1016.3
20260509234537 54 307 0.0 0.0 0.00 0.00 0.00 71 1016.3
20260509234106 54 288 0.0 0.0 0.00 0.00 0.00 71 1016.3
20260509233503 54 293 0.0 0.0 0.00 0.00 0.00 70 1016.4
20260509233032 55 293 0.0 0.0 0.00 0.00 0.00 70 1016.4
20260509232555 55 291 0.0 0.0 0.00 0.00 0.00 70 1016.4
20260509232122 55 297 0.0 0.0 0.00 0.00 0.00 69 1016.5
20260509231507 55 299 0.0 0.0 0.00 0.00 0.00 69 1016.5
20260509231023 55 299 0.0 0.0 0.00 0.00 0.00 69 1016.5
20260509230543 55 300 0.0 0.0 0.00 0.00 0.00 69 1016.5
20260509230038 55 276 0.0 0.0 0.00 0.00 0.00 69 1016.6
20260509225558 55 269 0.0 0.0 0.00 0.00 0.00 69 1016.5
20260509225048 55 276 0.0 0.0 0.00 0.00 0.00 69 1016.5
20260509224502 55 286 0.0 0.0 0.00 0.00 0.00 69 1016.4
20260509224118 55 301 0.0 0.0 0.00 0.00 0.00 69 1016.4
20260509223536 55 276 0.0 0.0 0.00 0.00 0.00 69 1016.3
20260509223053 55 326 0.0 0.0 0.00 0.00 0.00 69 1016.4
20260509222557 56 314 0.0 0.0 0.00 0.00 0.00 68 1016.5
20260509222059 56 304 0.0 0.0 0.00 0.00 0.00 68 1016.5
20260509221510 56 303 0.0 0.0 0.00 0.00 0.00 68 1016.5
20260509221027 56 290 0.0 0.0 0.00 0.00 0.00 68 1016.5
20260509220537 56 300 0.0 0.0 0.00 0.00 0.00 68 1016.4
20260509220029 56 289 0.0 0.0 0.00 0.00 0.00 67 1016.4
20260509215533 56 285 0.0 0.0 0.00 0.00 0.00 67 1016.5
20260509215053 56 285 0.0 0.0 0.00 0.00 0.00 67 1016.5
20260509214559 57 296 0.0 0.0 0.00 0.00 0.00 67 1016.5
20260509214046 57 295 0.0 0.0 0.00 0.00 0.00 66 1016.5
20260509213531 57 285 0.0 0.0 0.00 0.00 0.00 67 1016.5
20260509213114 57 297 0.0 0.0 0.00 0.00 0.00 67 1016.5
20260509212520 57 297 0.0 0.0 0.00 0.00 0.00 66 1016.6
20260509212045 57 297 0.0 0.0 0.00 0.00 0.00 66 1016.6
20260509211508 58 297 0.0 0.0 0.00 0.00 0.00 65 1016.6
20260509211012 58 288 0.0 0.0 0.00 0.00 0.00 65 1016.4
20260509210540 58 342 0.0 0.0 0.00 0.00 0.00 66 1016.4
20260509210018 58 340 0.0 0.0 0.00 0.00 0.00 65 1016.3
20260509205533 58 2 0.0 0.0 0.00 0.00 0.00 66 1016.3
20260509205044 58 295 0.0 0.9 0.00 0.00 0.00 65 1016.3
20260509204556 58 298 0.0 0.9 0.00 0.00 0.00 65 1016.4
20260509204007 58 304 0.0 0.0 0.00 0.00 0.00 65 1016.4
20260509203533 58 299 0.0 0.0 0.00 0.00 0.00 64 1016.4
20260509203101 58 310 0.0 0.0 0.00 0.00 0.00 64 1016.5
20260509202520 59 300 0.0 1.7 0.00 0.00 0.00 64 1016.4
20260509202040 59 303 0.0 1.7 0.00 0.00 0.00 64 1016.5
20260509201607 59 300 0.0 1.7 0.00 0.00 0.00 63 1016.4
20260509201016 59 293 0.0 0.0 0.00 0.00 0.00 62 1016.4
20260509200552 60 296 0.0 0.0 0.00 0.00 0.00 62 1016.3
20260509200004 60 297 0.0 0.9 0.00 0.00 0.00 62 1016.3
20260509195527 60 301 0.0 1.7 0.00 0.00 0.00 61 1016.2
20260509195042 60 296 0.0 2.6 0.00 0.00 0.00 61 1016.2
20260509194540 60 305 0.0 0.0 0.00 0.00 0.00 60 1016.1
20260509194018 61 307 0.0 0.0 0.00 0.00 0.00 59 1016.1
20260509193547 61 307 0.0 1.7 0.00 0.00 0.00 59 1016.2
20260509193103 61 290 0.0 1.7 0.00 0.00 0.00 58 1016.1
20260509192603 61 357 0.0 0.0 0.00 0.00 0.00 58 1016.1
20260509192054 62 290 0.0 0.0 0.00 0.00 0.00 56 1016.0
20260509191519 63 298 0.0 0.0 0.00 0.00 0.00 55 1015.9
20260509191038 63 304 0.0 0.0 0.00 0.00 0.00 54 1016.0
20260509190604 63 289 0.0 0.0 0.00 0.00 0.00 54 1016.0
20260509190008 64 289 0.0 0.0 0.00 0.00 0.00 53 1015.9
20260509185548 64 297 0.0 0.0 0.00 0.00 0.00 53 1015.9
20260509185028 65 297 0.0 0.0 0.00 0.00 0.00 52 1015.9
20260509184536 65 297 0.0 0.0 0.00 0.00 0.00 52 1015.8
20260509184048 66 297 0.0 0.0 0.00 0.00 0.00 51 1015.8
20260509183555 66 297 0.0 0.0 0.00 0.00 0.00 50 1015.7
20260509183002 66 291 0.0 0.0 0.00 0.00 0.00 50 1015.7
20260509182521 67 288 0.0 0.9 0.00 0.00 0.00 49 1015.7
20260509182043 67 285 0.0 0.9 0.00 0.00 0.00 48 1015.8
20260509181505 68 270 0.0 0.0 0.00 0.00 0.00 48 1015.8
20260509181031 68 281 0.0 0.9 0.00 0.00 0.00 48 1015.8
20260509180508 69 299 0.0 0.9 0.00 0.00 0.00 47 1015.8
20260509180035 69 272 0.0 0.0 0.00 0.00 0.00 46 1015.8
20260509175556 69 272 0.0 0.9 0.00 0.00 0.00 45 1016.0
20260509175009 69 272 0.0 1.7 0.00 0.00 0.00 47 1015.9
20260509174529 68 353 0.0 1.7 0.00 0.00 0.00 47 1015.9
20260509174045 68 296 0.0 3.5 0.00 0.00 0.00 46 1015.8
20260509173501 68 271 0.0 4.3 0.00 0.00 0.00 48 1015.8
20260509173007 68 334 0.9 5.2 0.00 0.00 0.00 48 1015.7
20260509172533 69 5 0.0 5.2 0.00 0.00 0.00 47 1015.6
20260509172053 69 280 0.9 5.2 0.00 0.00 0.00 46 1015.7
20260509171506 69 305 0.0 0.0 0.00 0.00 0.00 46 1015.6
20260509171017 70 280 0.0 1.7 0.00 0.00 0.00 44 1015.5
20260509170505 70 359 0.0 3.5 0.00 0.00 0.00 44 1015.6
20260509170005 70 338 0.0 3.5 0.00 0.00 0.00 45 1015.6
20260509165529 69 276 0.0 3.5 0.00 0.00 0.00 45 1015.7
20260509165057 69 294 0.9 3.5 0.00 0.00 0.00 45 1015.7
20260509164518 70 301 1.7 4.3 0.00 0.00 0.00 45 1015.7
20260509164046 70 306 0.9 4.3 0.00 0.00 0.00 45 1015.8
20260509163505 71 312 1.7 3.5 0.00 0.00 0.00 46 1015.8
20260509163039 71 324 0.0 1.7 0.00 0.00 0.00 43 1015.8
20260509162548 71 326 0.0 2.6 0.00 0.00 0.00 44 1015.8
20260509162100 71 260 0.0 2.6 0.00 0.00 0.00 44 1015.7
20260509161502 71 255 0.0 1.7 0.00 0.00 0.00 42 1015.7
20260509161022 71 4 0.0 2.6 0.00 0.00 0.00 43 1015.8
20260509160549 71 6 0.0 1.7 0.00 0.00 0.00 44 1015.7
20260509155515 69 278 0.0 3.5 0.00 0.00 0.00 48 1015.8
20260509155014 69 306 0.0 2.6 0.00 0.00 0.00 46 1015.7
20260509154539 70 308 0.0 0.9 0.00 0.00 0.00 46 1015.7
20260509154049 71 26 0.0 1.7 0.00 0.00 0.00 42 1015.7
20260509153511 72 354 0.0 1.7 0.00 0.00 0.00 43 1015.7
20260509153029 72 274 0.0 1.7 0.00 0.00 0.00 44 1015.8
20260509152519 72 44 0.0 0.9 0.00 0.00 0.00 44 1016.0
20260509152039 71 44 0.0 4.3 0.00 0.00 0.00 46 1015.9
20260509151540 71 291 0.0 4.3 0.00 0.00 0.00 42 1016.0
20260509151020 71 15 0.0 0.9 0.00 0.00 0.00 45 1016.1
20260509150607 71 15 0.0 0.9 0.00 0.00 0.00 45 1016.0
20260509150032 70 11 0.0 0.9 0.00 0.00 0.00 44 1016.1
20260509145544 71 255 0.0 0.9 0.00 0.00 0.00 43 1016.1
20260509145054 72 271 0.0 2.6 0.00 0.00 0.00 44 1016.1
20260509144504 72 271 0.0 2.6 0.00 0.00 0.00 42 1016.2
20260509144029 73 131 0.0 0.9 0.00 0.00 0.00 42 1016.1
20260509143533 72 131 0.0 0.0 0.00 0.00 0.00 42 1016.2
20260509143100 73 131 0.0 0.0 0.00 0.00 0.00 46 1016.2
20260509142519 73 131 0.0 1.7 0.00 0.00 0.00 45 1016.3
20260509142046 72 123 0.0 1.7 0.00 0.00 0.00 42 1016.3
20260509141607 73 202 0.0 0.9 0.00 0.00 0.00 41 1016.3
20260509141020 73 195 0.0 0.9 0.00 0.00 0.00 43 1016.4
20260509140641 72 91 0.0 0.9 0.00 0.00 0.00 45 1016.4
20260509140024 71 91 0.0 0.0 0.00 0.00 0.00 45 1016.5
20260509135547 70 311 0.0 1.7 0.00 0.00 0.00 46 1016.5
20260509135007 70 322 0.0 3.5 0.00 0.00 0.00 48 1016.5
20260509134528 70 305 0.0 3.5 0.00 0.00 0.00 46 1016.6
20260509134055 71 18 0.0 0.0 0.00 0.00 0.00 46 1016.6
20260509133511 71 18 0.0 1.7 0.00 0.00 0.00 46 1016.6
20260509133011 71 18 0.0 1.7 0.00 0.00 0.00 46 1016.7
20260509132537 71 23 0.0 1.7 0.00 0.00 0.00 47 1016.7
20260509132054 71 309 0.0 1.7 0.00 0.00 0.00 42 1016.7
20260509131511 71 49 0.0 0.0 0.00 0.00 0.00 46 1016.9
20260509131029 70 49 0.0 0.9 0.00 0.00 0.00 47 1016.9
20260509130513 70 49 0.0 2.6 0.00 0.00 0.00 48 1017.0
20260509130020 69 49 0.0 2.6 0.00 0.00 0.00 48 1017.0
20260509125637 69 232 0.0 2.6 0.00 0.00 0.00 51 1017.1
20260509125004 68 297 0.9 3.5 0.00 0.00 0.00 50 1017.2
20260509124519 69 20 0.9 3.5 0.00 0.00 0.00 48 1017.3
20260509124043 69 7 0.0 5.2 0.00 0.00 0.00 45 1017.2
20260509123536 69 300 0.9 5.2 0.00 0.00 0.00 47 1017.2
20260509123018 70 349 0.0 0.9 0.00 0.00 0.00 47 1017.3
20260509122543 70 25 0.0 0.9 0.00 0.00 0.00 46 1017.4
20260509122004 70 278 0.0 0.9 0.00 0.00 0.00 47 1017.4
20260509121531 70 278 0.0 0.9 0.00 0.00 0.00 44 1017.5
20260509121033 70 277 0.0 0.0 0.00 0.00 0.00 46 1017.5
20260509120104 69 277 0.0 0.9 0.00 0.00 0.00 45 1017.6
20260509115012 69 298 0.9 1.7 0.00 0.00 0.00 43 1017.7
20260509114507 69 264 0.0 1.7 0.00 0.00 0.00 47 1017.7
20260509114026 69 279 0.0 0.9 0.00 0.00 0.00 47 1017.8
20260509113531 68 274 0.0 1.7 0.00 0.00 0.00 47 1017.8
20260509113057 68 311 0.0 1.7 0.00 0.00 0.00 46 1017.9
20260509112514 68 335 0.0 0.9 0.00 0.00 0.00 50 1017.9
20260509112041 68 335 0.0 1.7 0.00 0.00 0.00 50 1018.0
20260509111503 68 340 0.0 1.7 0.00 0.00 0.00 48 1018.0
20260509084100 60 278 0.0 0.0 0.00 0.00 0.00 71 1018.4
20260509083505 59 278 0.0 0.0 0.00 0.00 0.00 70 1018.5
20260509083025 58 278 0.0 0.0 0.00 0.00 0.00 71 1018.5
20260509082528 58 278 0.0 0.0 0.00 0.00 0.00 71 1018.5
20260509082055 57 278 0.0 0.0 0.00 0.00 0.00 71 1018.6
20260509081555 57 278 0.0 0.0 0.00 0.00 0.00 72 1018.7
20260509081012 57 278 0.0 0.0 0.00 0.00 0.00 73 1018.8
20260509080533 56 278 0.0 0.0 0.00 0.00 0.00 73 1018.9
20260509080044 56 278 0.0 0.0 0.00 0.00 0.00 74 1018.9
20260509075600 56 278 0.0 0.0 0.00 0.00 0.00 74 1018.9
20260509075018 56 278 0.0 0.0 0.00 0.00 0.00 75 1019.0
20260509074522 56 278 0.0 0.0 0.00 0.00 0.00 76 1018.9
20260509074040 56 278 0.0 0.9 0.00 0.00 0.00 77 1019.0
20260509073552 56 278 0.0 0.9 0.00 0.00 0.00 75 1019.0
20260509073108 55 278 0.0 0.0 0.00 0.00 0.00 76 1018.9
20260509072508 55 278 0.0 0.0 0.00 0.00 0.00 77 1019.0
20260509072012 55 278 0.0 0.0 0.00 0.00 0.00 76 1019.0
20260509071513 55 278 0.0 0.0 0.00 0.00 0.00 77 1019.0
20260509071027 54 278 0.0 0.0 0.00 0.00 0.00 79 1019.1
20260509070551 54 278 0.0 0.0 0.00 0.00 0.00 79 1019.0
20260509070043 54 278 0.0 0.0 0.00 0.00 0.00 79 1019.0
20260509065607 53 278 0.0 0.0 0.00 0.00 0.00 80 1019.0
20260509065003 53 278 0.0 0.0 0.00 0.00 0.00 82 1019.0
20260509064627 53 278 0.0 0.0 0.00 0.00 0.00 84 1019.0